Weather History for Akron, OH

Change the Weather History Date:

Monday, November 4, 2013

  Actual Average (KCAK) Record (KCAK)
Temperature  
Mean Temperature 36 °F 46 °F  
Max Temperature 44 °F 54 °F 76 °F (2003)
Min Temperature 28 °F 37 °F 13 °F (1991)
Degree Days  
Heating Degree Days 29 19  
Month to date heating degree days 75  
Since 1 July heating degree days 630  
Cooling Degree Days 0 0  
Month to date cooling degree days 0  
Year to date cooling degree days 652  
Moisture  
Dew Point 23 °F    
Average Humidity 59    
Maximum Humidity 75    
Minimum Humidity 42    
Precipitation  
Precipitation 0.00 in 0.11 in 1.86 in (1985)
Month to date precipitation 0.44  
Year to date precipitation 33.92  
Snow  
Snow 0.00 in 0.10 in - ()
Month to date snowfall 0.2  
Since 1 July snowfall 0.6  
Since 1 September snowfall 0.6  
Snow Depth -    
Sea Level Pressure  
Sea Level Pressure 30.47 in    
Wind  
Wind Speed 5 mph (ESE)    
Max Wind Speed 8 mph    
Max Gust Speed -    
Visibility 10 miles    
Events      
T = Trace of Precipitation, MM = Missing Value Source: NWS Daily Summary

Daily Weather History Graph

Daily Weather History Graph

Search for Another Location

Airport:

Trip Planner

Search our weather history database for the weather conditions in past years. The results will help you decide how hot, cold, wet, or windy it might be!

Date:

Astronomy

Nov. 04, 2013 Rise Set
Actual Time 7:00 AM EST 5:17 PM EST
Civil Twilight 6:31 AM EST 5:46 PM EST
Nautical Twilight 5:59 AM EST 6:19 PM EST
Astronomical Twilight 5:26 AM EST 6:51 PM EST
Moon 8:10 AM EST (11/4) 6:20 PM EST (11/4)
Length of Visible Light 11h 14m
Length of Day
10h 17m
New Moon, 2% of the Moon is Illuminated
Nov 4
New Moon
Nov 10
First Quarter
Nov 17
Full
Nov 25
Last Quarter
Dec 2
New

Hourly Weather History & Observations

Time (EST) Temp. Windchill Dew Point Humidity Pressure Visibility Wind Dir Wind Speed Gust Speed Precip Events Conditions
12:54 AM 30.9 °F 27.5 °F 23.0 °F 72% 30.50 in 10.0 mi ENE 3.5 mph - N/A   Clear
1:54 AM 30.0 °F 25.2 °F 23.0 °F 75% 30.50 in 10.0 mi East 4.6 mph - N/A   Clear
2:54 AM 30.0 °F 24.1 °F 23.0 °F 75% 30.50 in 10.0 mi East 5.8 mph - N/A   Clear
3:54 AM 30.0 °F 24.1 °F 23.0 °F 75% 30.50 in 10.0 mi East 5.8 mph - N/A   Clear
4:54 AM 28.9 °F 25.2 °F 21.9 °F 75% 30.52 in 10.0 mi Variable 3.5 mph - N/A   Clear
5:54 AM 28.9 °F 22.8 °F 21.9 °F 75% 30.52 in 10.0 mi East 5.8 mph - N/A   Clear
6:54 AM 28.9 °F 21.9 °F 21.9 °F 75% 30.53 in 10.0 mi East 6.9 mph - N/A   Clear
7:54 AM 30.0 °F 22.4 °F 21.9 °F 72% 30.53 in 10.0 mi East 8.1 mph - N/A   Clear
8:54 AM 32.0 °F 26.4 °F 23.0 °F 69% 30.53 in 10.0 mi East 5.8 mph - N/A   Clear
9:54 AM 34.0 °F 28.8 °F 24.1 °F 67% 30.53 in 10.0 mi Variable 5.8 mph - N/A   Clear
10:54 AM 37.0 °F 32.4 °F 25.0 °F 62% 30.52 in 10.0 mi SE 5.8 mph - N/A   Clear
11:54 AM 39.0 °F 33.4 °F 24.1 °F 55% 30.49 in 10.0 mi SE 8.1 mph - N/A   Clear
12:54 PM 42.1 °F 40.2 °F 24.1 °F 49% 30.48 in 10.0 mi Variable 3.5 mph - N/A   Clear
1:54 PM 42.1 °F 37.1 °F 23.0 °F 47% 30.44 in 10.0 mi SE 8.1 mph - N/A   Clear
2:54 PM 44.1 °F 42.5 °F 23.0 °F 43% 30.43 in 10.0 mi Variable 3.5 mph - N/A   Clear
3:54 PM 43.0 °F 38.8 °F 21.0 °F 42% 30.41 in 10.0 mi ESE 6.9 mph - N/A   Clear
4:54 PM 43.0 °F 41.3 °F 21.9 °F 43% 30.43 in 10.0 mi Variable 3.5 mph - N/A   Clear
5:54 PM 42.1 °F 40.2 °F 23.0 °F 47% 30.44 in 10.0 mi SE 3.5 mph - N/A   Clear
6:54 PM 42.1 °F 40.2 °F 23.0 °F 47% 30.43 in 10.0 mi Variable 3.5 mph - N/A   Clear
7:54 PM 42.1 °F 40.2 °F 24.1 °F 49% 30.41 in 10.0 mi Variable 3.5 mph - N/A   Clear
8:54 PM 42.1 °F - 24.1 °F 49% 30.41 in 10.0 mi Calm Calm - N/A   Clear
9:54 PM 42.1 °F 40.2 °F 24.1 °F 49% 30.41 in 10.0 mi SSE 3.5 mph - N/A   Clear
10:54 PM 43.0 °F 41.3 °F 25.0 °F 49% 30.42 in 10.0 mi South 3.5 mph - N/A   Clear
11:54 PM 43.0 °F 39.5 °F 25.0 °F 49% 30.40 in 10.0 mi SSE 5.8 mph - N/A   Clear